Location: Kamienna Góra
(50.7870°N, 16.0342°E)
Time: 22:55:35
(UTC+02:00)

ISS - Visible Passes

Search period start: 22 September 2018 00:00
Search period end: 02 October 2018 00:00
Orbit: 403 x 408 km, 51.6° (Epoch: 23 September)

Date Brightness Start Highest point End Pass type
(mag) Time Alt. Az. Time Alt. Az. Time Alt. Az.
22 Sep -1.8 20:27:35 10° SSW 20:28:53 16° S 20:28:53 16° S visible
23 Sep -1.7 19:36:55 10° SSE 19:38:25 13° SE 19:39:38 11° ESE visible
23 Sep -1.7 21:11:07 10° SW 21:12:21 20° SW 21:12:21 20° SW visible
24 Sep -3.1 20:19:31 10° SW 20:22:33 34° SSE 20:22:54 33° SE visible
24 Sep -0.5 21:55:35 10° W 21:55:36 10° W 21:55:36 10° W visible
25 Sep -2.4 19:28:07 10° SSW 19:30:47 23° SE 19:33:18 11° E visible
25 Sep -2.8 21:03:41 10° WSW 21:05:59 42° WSW 21:05:59 42° WSW visible
26 Sep -3.7 20:11:51 10° WSW 20:15:05 58° SSE 20:16:15 34° E visible
26 Sep -0.8 21:48:17 10° W 21:48:56 15° W 21:48:56 15° W visible
27 Sep -3.2 19:20:07 10° SW 19:23:14 40° SSE 19:26:22 10° E visible
27 Sep -3.3 20:56:20 10° W 20:59:06 59° W 20:59:06 59° W visible
28 Sep -3.9 20:04:22 10° WSW 20:07:41 86° S 20:09:12 30° E visible
28 Sep -1.0 21:40:57 10° W 21:41:52 17° W 21:41:52 17° W visible
29 Sep -3.7 19:12:28 10° WSW 19:15:45 66° SSE 19:19:02 10° ENE visible
29 Sep -3.4 20:48:58 10° W 20:51:54 64° NW 20:51:54 64° NW visible
30 Sep -3.8 19:56:58 10° W 20:00:17 77° N 20:01:54 27° ENE visible
30 Sep -1.0 21:33:33 10° WNW 21:34:34 18° WNW 21:34:34 18° WNW visible
01 Oct -3.8 19:04:58 10° WSW 19:08:17 88° N 19:11:36 10° ENE visible
01 Oct -3.6 20:41:33 10° W 20:44:32 69° WNW 20:44:32 69° WNW visible
